Morris, IL

3:55 PM CDT on May 26, 2018 (GMT -0500)
Morris

Weather History for KC09 - May, 2014

Change the Weather History Date:

Friday, May 9, 2014

  Actual Average (KARR) Record (KARR)
Temperature  
Mean Temperature 62 °F -  
Max Temperature 73 °F 67 °F 87 °F (2004)
Min Temperature 52 °F 46 °F 32 °F (2010)
Degree Days  
Heating Degree Days 2    
Growing Degree Days 12 (Base 50)    
Moisture  
Dew Point 58 °F    
Average Humidity 76    
Maximum Humidity 100    
Minimum Humidity 42    
Precipitation  
Precipitation 0.00 in - - ()
Sea Level Pressure  
Sea Level Pressure 29.76 in    
Wind  
Wind Speed 12 mph (WSW)    
Max Wind Speed 25 mph    
Max Gust Speed 30 mph    
Visibility 10 miles    
Events Rain , Thunderstorm    
Averages and records for this station are not official NWS values.
T = Trace of Precipitation, MM = Missing Value Source: NWS Daily Summary

Daily Weather History Graph

Daily Weather History Graph

Search for Another Location

Airport or City:

Astronomy

May. 09, 2014 Rise Set
Actual Time 5:41 AM CDT 7:59 PM CDT
Civil Twilight 5:10 AM CDT 8:30 PM CDT
Nautical Twilight 4:32 AM CDT 9:09 PM CDT
Astronomical Twilight 3:49 AM CDT 9:51 PM CDT
Moon 2:53 PM CDT (5/9) 2:47 AM CDT (5/9)
Length of Visible Light 15h 20m
Length of Day
14h 18m
Waxing Gibbous, 74% of the Moon is Illuminated
May 9
Waxing Gibbous
May 14
Full
May 21
Last Quarter
May 28
New
Jun 5
First Quarter

Hourly Weather History & Observations

Time (CDT) Temp. Dew Point Humidity Pressure Visibility Wind Dir Wind Speed Gust Speed Precip Events Conditions
12:15 AM 67.1 °F 65.5 °F 95% 29.81 in 10.0 mi WSW 8.1 mph - N/A Rain Light Rain
12:35 AM 66.7 °F 66.7 °F 100% 29.80 in 7.0 mi South 4.6 mph - N/A Rain Light Rain
12:55 AM 66.7 °F 66.7 °F 100% 29.79 in 10.0 mi South 9.2 mph - N/A   Overcast
1:15 AM 66.7 °F 66.7 °F 100% 29.81 in 7.0 mi SSW 9.2 mph - N/A Rain Light Rain
1:35 AM 66.9 °F 66.9 °F 100% 29.79 in 10.0 mi South 11.5 mph - N/A Rain Light Rain
1:55 AM 67.3 °F 66.0 °F 96% 29.78 in 10.0 mi South 11.5 mph - N/A   Overcast
2:15 AM 67.5 °F 64.8 °F 91% 29.78 in 10.0 mi SSW 19.6 mph 24.2 mph N/A Rain Light Rain
2:35 AM 67.1 °F 64.0 °F 90% 29.77 in 10.0 mi South 9.2 mph - N/A Rain Light Rain
2:55 AM 66.6 °F 64.4 °F 93% 29.78 in 10.0 mi South 9.2 mph - N/A   Overcast
3:15 AM 66.2 °F 66.2 °F 100% 29.77 in 10.0 mi South 8.1 mph - N/A   Overcast
3:35 AM 65.8 °F 65.8 °F 100% 29.76 in 10.0 mi SSE 6.9 mph - N/A   Overcast
3:55 AM 66.2 °F 66.2 °F 100% 29.75 in 10.0 mi SSE 8.1 mph - N/A   Overcast
4:15 AM 66.2 °F 66.2 °F 100% 29.74 in 10.0 mi SSE 8.1 mph - N/A   Overcast
4:35 AM 66.2 °F 66.2 °F 100% 29.73 in 10.0 mi South 11.5 mph - N/A Rain Light Rain
4:55 AM 66.2 °F 66.2 °F 100% 29.72 in 7.0 mi South 17.3 mph - N/A Rain Light Rain
5:15 AM 66.6 °F 66.6 °F 100% 29.72 in 10.0 mi South 13.8 mph - N/A   Overcast
5:35 AM 66.6 °F 66.6 °F 100% 29.71 in 10.0 mi South 13.8 mph - N/A Rain , Thunderstorm Rain
5:55 AM 66.7 °F 66.7 °F 100% 29.71 in 10.0 mi South 15.0 mph 20.7 mph N/A Rain Light Rain
6:15 AM 67.3 °F 66.2 °F 96% 29.71 in 10.0 mi South 16.1 mph - N/A   Mostly Cloudy
6:35 AM 68.0 °F 66.2 °F 94% 29.71 in 3.0 mi South 18.4 mph 26.5 mph N/A   Overcast
6:55 AM 67.1 °F 67.1 °F 100% 29.71 in 7.0 mi South 19.6 mph 24.2 mph N/A Rain Light Rain
7:15 AM 67.1 °F 66.9 °F 99% 29.71 in 7.0 mi SSW 15.0 mph 24.2 mph N/A Rain Light Rain
7:35 AM 67.1 °F 66.2 °F 97% 29.71 in 10.0 mi SSW 16.1 mph - N/A Rain Light Rain
7:55 AM 66.2 °F 62.2 °F 87% 29.72 in 10.0 mi SW 11.5 mph - N/A   Mostly Cloudy
8:15 AM 66.4 °F 63.9 °F 92% 29.72 in 10.0 mi SSW 11.5 mph - N/A   Mostly Cloudy
8:35 AM 66.6 °F 63.0 °F 88% 29.71 in 10.0 mi SSW 9.2 mph - N/A   Mostly Cloudy
8:55 AM 68.0 °F 63.0 °F 84% 29.71 in 10.0 mi SSW 10.4 mph - N/A   Scattered Clouds
9:15 AM 68.5 °F 63.7 °F 84% 29.72 in 10.0 mi SW 15.0 mph - N/A   Mostly Cloudy
9:35 AM 69.3 °F 63.9 °F 83% 29.72 in 10.0 mi SW 15.0 mph 23.0 mph N/A   Overcast
9:55 AM 69.3 °F 64.4 °F 84% 29.72 in 10.0 mi WSW 17.3 mph 23.0 mph N/A   Overcast
10:15 AM 68.5 °F 64.4 °F 87% 29.72 in 10.0 mi WSW 19.6 mph 23.0 mph N/A   Overcast
10:35 AM 68.7 °F 63.9 °F 84% 29.73 in 10.0 mi WSW 17.3 mph 23.0 mph N/A   Mostly Cloudy
10:55 AM 68.0 °F 62.6 °F 83% 29.73 in 10.0 mi West 12.7 mph 24.2 mph N/A   Mostly Cloudy
11:15 AM 67.8 °F 62.4 °F 83% 29.73 in 10.0 mi West 17.3 mph 21.9 mph N/A   Scattered Clouds
11:35 AM 68.5 °F 63.1 °F 83% 29.73 in 10.0 mi West 16.1 mph - N/A   Clear
11:55 AM 70.3 °F 63.0 °F 77% 29.73 in 10.0 mi SW 20.7 mph 27.6 mph N/A   Scattered Clouds
12:15 PM 70.7 °F 62.2 °F 75% 29.73 in 10.0 mi WSW 20.7 mph 25.3 mph N/A   Scattered Clouds
12:35 PM 70.9 °F 60.8 °F 70% 29.73 in 10.0 mi West 18.4 mph 24.2 mph N/A   Scattered Clouds
12:55 PM 70.9 °F 59.4 °F 67% 29.73 in 10.0 mi WSW 21.9 mph 28.8 mph N/A   Scattered Clouds
1:15 PM 71.2 °F 58.5 °F 64% 29.74 in 10.0 mi WSW 25.3 mph 29.9 mph N/A   Clear
1:35 PM 71.2 °F 56.7 °F 60% 29.73 in 10.0 mi West 20.7 mph 28.8 mph N/A   Clear
1:55 PM 71.4 °F 56.7 °F 60% 29.73 in 10.0 mi West 24.2 mph 29.9 mph N/A   Clear
2:15 PM 71.2 °F 55.8 °F 58% 29.73 in 10.0 mi West 17.3 mph 25.3 mph N/A   Clear
2:35 PM 71.6 °F 55.4 °F 57% 29.74 in 10.0 mi West 21.9 mph 27.6 mph N/A   Scattered Clouds
2:55 PM 72.0 °F 54.0 °F 53% 29.73 in 10.0 mi WSW 16.1 mph 25.3 mph N/A   Clear
3:15 PM 72.3 °F 53.4 °F 51% 29.73 in 10.0 mi West 18.4 mph 25.3 mph N/A   Scattered Clouds
3:35 PM 72.5 °F 52.9 °F 50% 29.75 in 10.0 mi WSW 18.4 mph 25.3 mph N/A   Clear
3:55 PM 72.5 °F 51.8 °F 48% 29.75 in 10.0 mi West 19.6 mph - N/A   Scattered Clouds
4:15 PM 72.3 °F 50.5 °F 46% 29.74 in 10.0 mi West 16.1 mph 24.2 mph N/A   Clear
4:35 PM 72.5 °F 49.1 °F 44% 29.74 in 10.0 mi WSW 20.7 mph 25.3 mph N/A   Clear
4:55 PM 72.0 °F 47.8 °F 42% 29.74 in 10.0 mi West 20.7 mph 25.3 mph N/A   Clear
5:15 PM 72.5 °F 48.6 °F 43% 29.75 in 10.0 mi West 17.3 mph 21.9 mph N/A   Clear
5:35 PM 72.0 °F 48.4 °F 43% 29.75 in 10.0 mi WSW 13.8 mph - N/A   Clear
5:55 PM 71.4 °F 48.2 °F 44% 29.76 in 10.0 mi West 15.0 mph 20.7 mph N/A   Scattered Clouds
6:15 PM 71.1 °F 48.2 °F 44% 29.76 in 10.0 mi West 13.8 mph 20.7 mph N/A   Scattered Clouds
6:35 PM 70.2 °F 48.0 °F 45% 29.76 in 10.0 mi WNW 16.1 mph 26.5 mph N/A   Scattered Clouds
6:55 PM 69.1 °F 48.9 °F 49% 29.77 in 10.0 mi WNW 16.1 mph 21.9 mph N/A   Clear
7:15 PM 67.1 °F 49.3 °F 53% 29.78 in 10.0 mi WNW 16.1 mph 20.7 mph N/A   Clear
7:35 PM 65.7 °F 49.5 °F 56% 29.79 in 10.0 mi WNW 12.7 mph - N/A   Clear
7:55 PM 64.0 °F 49.1 °F 58% 29.80 in 10.0 mi WNW 12.7 mph - N/A   Clear
8:15 PM 62.1 °F 49.5 °F 63% 29.81 in 10.0 mi NW 8.1 mph - N/A   Clear
8:35 PM 61.2 °F 49.1 °F 65% 29.82 in 10.0 mi NW 8.1 mph - N/A   Clear
8:55 PM 60.1 °F 48.6 °F 66% 29.83 in 10.0 mi NW 8.1 mph - N/A   Clear
9:15 PM 60.1 °F 47.3 °F 63% 29.84 in 10.0 mi NW 6.9 mph - N/A   Clear
9:35 PM 58.6 °F 47.1 °F 66% 29.85 in 10.0 mi NNW 6.9 mph - N/A   Clear
9:55 PM 57.6 °F 46.8 °F 67% 29.86 in 10.0 mi NNW 3.5 mph - N/A   Clear
10:15 PM 56.7 °F 46.8 °F 69% 29.87 in 10.0 mi Calm Calm - N/A   Clear
10:35 PM 55.0 °F 47.3 °F 75% 29.88 in 10.0 mi WNW 3.5 mph - N/A   Clear
10:55 PM 54.3 °F 46.8 °F 76% 29.88 in 10.0 mi NW 3.5 mph - N/A   Clear
11:15 PM 53.4 °F 46.8 °F 78% 29.88 in 10.0 mi Calm Calm - N/A   Clear
11:35 PM 53.2 °F 46.6 °F 78% 29.89 in 10.0 mi WSW 3.5 mph - N/A   Clear
11:55 PM 52.5 °F 46.6 °F 80% 29.89 in 10.0 mi West 4.6 mph - N/A   Clear